Regional Weather Roundup
Issued by NWS Upton, NY

Current Version | Previous Version | Graphics & Text | Print | Product List | Glossary Off
Versions: 1 2 3 4 5 6 7 8 9 10 11 12 13 14 15 16 17 18 19 20 21 22 23 24 25 26 27 28 29 30 31 32 33 34 35 36 37 38 39 40 41 42 43 44 45 46 47 48 49

000
ASUS41 KOKX 120204
RWROKX

REGIONAL WEATHER ROUNDUP
NATIONAL WEATHER SERVICE NEW YORK NY
900 PM EST THU FEB 11 2016

NOTE: "FAIR" INDICATES FEW OR NO CLOUDS BELOW 12,000 FEET WITH NO
SIGNIFICANT WEATHER AND/OR OBSTRUCTIONS TO VISIBILITY.

NYZ071-072-176-178-NJZ106-104-120300-
NEW YORK CITY METRO AREA


CITY           SKY/WX    TMP DP  RH WIND       PRES   REMARKS
CENTRAL PARK   CLEAR     20  -5  33 NW14G29   30.14R WCI   7
LAGUARDIA APRT PTCLDY    22  -2  35 W22G31    30.13R WCI   6
KENNEDY INTL   PTCLDY    22  -5  30 NW18G31   30.15R WCI   7
NEWARK/LIBERTY PTCLDY    21  -4  33 W23G32    30.15R WCI   5
BRNX BOT. GARD   N/A     21   1  42 N5        30.14S WCI  15
TETERBORO      CLEAR     20  -4  34 NW17      30.14R WCI   5
$$

NYZ177-179-078>081-120300-
LONG ISLAND NEW YORK

CITY           SKY/WX    TMP DP  RH WIND       PRES   REMARKS
FARMINGDALE    PTCLDY    21  -1  38 NW16G30   30.12R WCI   7
ISLIP          PTCLDY    19   0  43 NW20G26   30.10R WCI   3
SHIRLEY        CLOUDY    19  -2  39 NW25G35   30.11R WCI   1
RIVERHEAD        N/A     19 -13  23 W17       30.06R WCI   4
WESTHAMPTON    PTCLDY    17  -3  41 W29G37    30.10R WCI  -2
EAST HAMPTON   MOCLDY    18  -1  42 W16G26    30.05R WCI   4
MONTAUK POINT    N/A     20   2  45 NW18G36   30.05R WCI   5
$$

NYZ052-065-067-120300-
HUDSON VALLEY

CITY           SKY/WX    TMP DP  RH WIND       PRES   REMARKS
WHITE PLAINS   PTCLDY    16   0  49 W23G33    30.08R WCI  -2
NEWBURGH       NOT AVBL
MONTGOMERY     CLEAR     15   0  51 W12G22    30.10R WCI   2
POUGHKEEPSIE   CLEAR     17  -4  39 W10G23    30.11R WCI   5
ALBANY         PTCLDY    10  -5  50 NW12G17   30.10R WCI  -5
$$

NJZ001-105-106-008-010-013-015-019>022-104-120300-
NEW JERSEY

CITY           SKY/WX    TMP DP  RH WIND       PRES   REMARKS
NEWARK/LIBERTY PTCLDY    21  -4  33 W23G32    30.15R WCI   5
TETERBORO      CLEAR     20  -4  34 NW17      30.14R WCI   5
CALDWELL       CLEAR     19  -6  33 NW23G30   30.14R WCI   2
MORRISTOWN     CLEAR     19   0  42 NW10G18   30.15R WCI   8
SOMERVILLE     CLEAR     20  -1  40 NW12G18   30.15R WCI   8
SUSSEX         CLEAR     15   1  53 W5        30.12R WCI   8
ANDOVER          N/A     16  -4  41 CALM      30.12R
TRENTON        PTCLDY    20   8  60 W10       30.18R WCI   9
MILLVILLE      CLEAR     22   2  42 W16G25    30.24R WCI   8
ATLANTIC CITY  CLEAR     22   1  40 W14G22    30.21R WCI   9
WRIGHTSTOWN    CLOUDY    22   1  40 W10G18    30.16R WCI  11
TOMS RIVER     CLOUDY    21   1  42 W9        30.18R WCI  11
BELMAR         CLEAR     21   1  42 W15G24    30.15R WCI   8
$$

PAZ047>061-062-071-120300-
EASTERN PENNSYLVANIA

CITY           SKY/WX    TMP DP  RH WIND       PRES   REMARKS
PHILADELPHIA   PTCLDY    23  -2  33 W16G30    30.23R WCI  10
ALLENTOWN      PTCLDY    19   6  57 W12G22    30.16R WCI   7
SCRANTON       PTCLDY    14  -1  51 NW9       30.11R WCI   2
$$

CTZ002-004>006-009-010-012-RIZ004-006-007-MAZ004-011-015-120300-
SOUTHERN NEW ENGLAND
 IN CT

CITY           SKY/WX    TMP DP  RH WIND       PRES   REMARKS
BRADLEY INTL   PTCLDY    13  -3  49 NW14G25   30.03R WCI  -2
HARTFORD       PTCLDY    16  -4  41 W10G16    30.07R WCI   4
DANBURY        CLEAR     14  -6  40 W14G22    30.09R WCI  -1
WTRBRY/OXFORD  PTCLDY    12  -9  37 NW9G18    30.03R WCI   0
BRIDGEPORT     CLEAR     18  -4  37 NW21G33   30.11R WCI   1
MERIDEN        CLEAR     16  -6  37 NW12G24   30.07R WCI   3
NEW HAVEN      CLEAR     18  -1  43 W12G21    30.09R WCI   5
CHESTER        FAIR      16  -4  41 NW10G25   30.03R WCI   3
GROTON         CLEAR     16  -1  47 NW15G24   30.05R WCI   1
WILLIMANTIC    CLEAR     14  -5  42 W14       30.03R WCI  -1

 IN RI

CITY           SKY/WX    TMP DP  RH WIND       PRES   REMARKS
PROVIDENCE     CLEAR     15  -3  44 W14G24    30.01R WCI   0
BLOCK ISLAND   PTCLDY    18   3  53 NW17G32   30.00R WCI   2
WESTERLY       CLEAR     16  -4  41 NW9       30.05R WCI   4

 IN MA

CITY           SKY/WX    TMP DP  RH WIND       PRES   REMARKS
BOSTON         CLEAR     14  -3  47 W23G35    29.95R WCI  -5
WORCESTER      CLEAR      8  -5  55 W23G32    29.89R WCI -13
WESTFIELD      CLOUDY    12  -3  51 W18G37    30.02R WCI  -6
PROVINCETOWN   NOT AVBL
NANTUCKET      PTCLDY    20   1  43 W23G41    29.95R WCI   3
$$

ANZ330-335-338-340-345-350-353-355-120300-
COASTAL MARINE OBSERVATIONS


STATION/POSITION TIME  SKY/WX   TEMP    WIND        PRES    VSBY  WAVE
                                AIR SEA DIR/SP/G                  HT/PER
                 (UTC)          (F)     (DEG/KT/KT) (MB)    (MI)  (FT/S)
NY HARB ENTRANCE 0050            26 42  300/ 25/ 33 1018.6          4/ 5
4S FIRE IS       NOT AVBL
20S FIRE ISLAND  0050            27 44  300/ 29/ 37 1017.4          9/ 7
GREAT SOUTH BAY  NOT AVBL
23SW MTP         0150            23 45  300/ 33/ 39 1016.6         10/ 7
HUDSON CANYON    0050            29 48              1017.6         12/ 8
KINGS POINT      0100            22 36              1019.2
EXECUTION ROCKS  NOT AVBL
CENTRAL LI SOUND 0100            22     280/ 27/ 35   N/A           6/ 5
EASTERN LI SOUND 0100            21 41  310/ 19/ 25   N/A
ROBBINS REEF     0100            22                 1018.9
$$


>>>>>>>>>>>>>>>>>>>>>>>>>>>> KEY <<<<<<<<<<<<<<<<<<<<<<<<<<<
>                                                          <
>     SKY/WX - SKY CONDITION/PRESENT WEATHER               <
>     TMP    - TEMPERATURE IN FAHRENHEIT                   <
>     DP     - DEWPOINT IN FAHRENHEIT                      <
>     RH     - RELATIVE HUMIDITY IN PERCENT                <
>     WIND   - DIRECTION AND SPEED IN MPH                  <
>     PRES   - MEAN SEA LEVEL PRESSURE IN INCHES OF HG     <
>     WCI    - WIND CHILL INDEX                            <
>     VSB    - VISIBILITY IN MILES                         <
>     HX     - HEAT INDEX                                  <
>     TC     - TEMPERATURE IN CELSIUS                      <
>     VRB    - VARIABLE WIND DIRECTION                     <
>                                                          <
>>>>>>>>>>>>>>>>>>>>>>>>>>>> KEY <<<<<<<<<<<<<<<<<<<<<<<<<<<





USA.gov is the U.S. government's official web portal to all federal, state and local government web resources and services.